TimeEDT,TemperatureF,Dew PointF,Humidity,Sea Level PressureIn,VisibilityMPH,Wind Direction,Wind SpeedMPH,Gust SpeedMPH,PrecipitationIn,Events,Conditions,WindDirDegrees,DateUTC
12:53 AM,69.1,66.0,90,29.98,7.0,Calm,Calm,-,N/A,,Clear,0,2013-09-09 04:53:00
1:53 AM,68.0,64.9,90,29.98,6.0,Calm,Calm,-,N/A,,Clear,0,2013-09-09 05:53:00
2:53 AM,66.9,64.0,90,29.99,8.0,Calm,Calm,-,N/A,,Clear,0,2013-09-09 06:53:00
3:53 AM,66.9,64.0,90,29.99,8.0,North,3.5,-,N/A,,Clear,10,2013-09-09 07:53:00
4:53 AM,66.9,64.9,93,30.00,7.0,Calm,Calm,-,N/A,,Clear,0,2013-09-09 08:53:00
5:53 AM,66.0,64.0,93,30.01,4.0,Calm,Calm,-,N/A,,Clear,0,2013-09-09 09:53:00
6:11 AM,66.2,64.4,94,30.02,4.0,NE,3.5,-,N/A,,Scattered Clouds,40,2013-09-09 10:11:00
6:22 AM,66.2,64.4,94,30.03,4.0,Calm,Calm,-,N/A,,Mostly Cloudy,0,2013-09-09 10:22:00
6:36 AM,66.2,64.4,94,30.03,1.8,NE,3.5,-,N/A,,Overcast,50,2013-09-09 10:36:00
6:44 AM,66.2,64.4,94,30.03,0.2,NE,3.5,-,N/A,Fog,Fog,50,2013-09-09 10:44:00
6:53 AM,66.0,64.9,96,30.03,0.2,Calm,Calm,-,N/A,Fog,Fog,0,2013-09-09 10:53:00
7:51 AM,66.2,66.2,100,30.05,0.2,NE,3.5,-,N/A,Fog,Fog,50,2013-09-09 11:51:00
7:53 AM,66.9,66.0,97,30.04,0.2,NE,3.5,-,N/A,Fog,Fog,40,2013-09-09 11:53:00
8:01 AM,68.0,66.2,94,30.05,0.2,NE,3.5,-,N/A,Fog,Fog,50,2013-09-09 12:01:00
8:53 AM,70.0,69.1,97,30.06,0.2,East,3.5,-,N/A,Fog,Fog,100,2013-09-09 12:53:00
9:04 AM,71.6,69.8,94,30.07,0.5,ENE,3.5,-,N/A,Fog,Fog,70,2013-09-09 13:04:00
9:14 AM,71.6,69.8,94,30.08,1.8,ESE,3.5,-,N/A,,Overcast,110,2013-09-09 13:14:00
9:22 AM,71.6,69.8,94,30.08,3.0,ESE,3.5,-,N/A,,Mostly Cloudy,110,2013-09-09 13:22:00
9:35 AM,71.6,69.8,94,30.08,7.0,ESE,4.6,-,N/A,,Scattered Clouds,110,2013-09-09 13:35:00
9:53 AM,77.0,70.0,79,30.08,10.0,ESE,5.8,-,N/A,,Clear,110,2013-09-09 13:53:00
10:53 AM,82.9,71.1,67,30.09,10.0,East,3.5,-,N/A,,Clear,90,2013-09-09 14:53:00
11:53 AM,87.1,70.0,57,30.09,10.0,Variable,4.6,-,N/A,,Clear,0,2013-09-09 15:53:00
12:53 PM,90.0,64.9,43,30.09,10.0,Variable,6.9,-,N/A,,Partly Cloudy,0,2013-09-09 16:53:00
1:53 PM,90.0,66.0,45,30.09,10.0,Variable,4.6,-,N/A,,Clear,0,2013-09-09 17:53:00
2:53 PM,90.0,66.0,45,30.08,10.0,East,8.1,-,N/A,,Partly Cloudy,90,2013-09-09 18:53:00
3:53 PM,90.0,66.0,45,30.07,10.0,Variable,4.6,-,N/A,,Partly Cloudy,0,2013-09-09 19:53:00
4:53 PM,90.0,68.0,48,30.07,10.0,ENE,6.9,-,N/A,,Scattered Clouds,70,2013-09-09 20:53:00
5:53 PM,89.1,66.9,48,30.06,10.0,SE,8.1,-,N/A,,Scattered Clouds,140,2013-09-09 21:53:00
6:53 PM,86.0,69.1,57,30.07,10.0,SSE,8.1,-,N/A,,Partly Cloudy,160,2013-09-09 22:53:00
7:53 PM,82.0,70.0,67,30.09,10.0,SSE,6.9,-,N/A,,Mostly Cloudy,160,2013-09-09 23:53:00
8:53 PM,79.0,70.0,74,30.11,10.0,SSE,3.5,-,N/A,,Partly Cloudy,150,2013-09-10 00:53:00
9:53 PM,77.0,70.0,79,30.12,10.0,SSE,4.6,-,N/A,,Mostly Cloudy,160,2013-09-10 01:53:00
10:53 PM,75.0,69.1,82,30.14,10.0,South,3.5,-,N/A,,Clear,180,2013-09-10 02:53:00
11:53 PM,75.0,69.1,82,30.14,10.0,Calm,Calm,-,N/A,,Clear,0,2013-09-10 03:53:00